Regional Weather Roundup
Issued by NWS

Home | Current Version | Previous Version | Text Only | Print | Product List | Glossary On
Versions: 1 2 3 4 5 6 7 8 9 10 11 12 13 14 15 16 17 18 19 20 21 22 23 24 25 26 27 28 29 30 31 32 33 34 35 36 37 38 39 40 41 42 43 44 45 46 47 48 49 50
000
ASUS42 KKEY 312310
RWRKEY

FLORIDA REGIONAL WEATHER ROUNDUP FOR THE FLORIDA KEYS
NATIONAL WEATHER SERVICE KEY WEST FLORIDA
700 PM EDT THU JUL 31 2014

...SOUTH FLORIDA AND THE KEYS...

CITY           SKY/WX    TMP DP  RH WIND       PRES   REMARKS
FORT MYERS     CLOUDY    85  77  77 SE7       29.96R HX  95
SW REGIONAL AP CLOUDY    82  75  79 SE9       29.97R
NAPLES         CLOUDY    87  73  62 CALM      29.97S HX  94
MIAMI          RAIN      76  75  97 CALM      30.00S FOG
WEST KENDALL   CLOUDY    81  75  82 N7        30.00S
HOMESTEAD      CLOUDY    79  73  83 W8        29.99R
MARATHON       MOSUNNY   89  75  63 VRB3      29.97S HX  99
BOCA CHICA NAS PTSUNNY   87  75  67 NW5       29.98R HX  96
KEY WEST INTL  MOSUNNY   87  75  67 NW5       29.98R HX  96

...INTERNATIONAL WEATHER...

CITY           SKY/WX    TMP DP  RH WIND       PRES   REMARKS
NASSAU BAHAMAS MOSUNNY   88  73  62 E7        30.00R HX  96
CANCUN MEXICO  MOSUNNY   86  73  66 NE10      29.95F HX  93
COZUMEL MEXICO MOSUNNY   86  72  62 E12       29.94R HX  92

ADJACENT COASTAL WATERS...

STATION/POSITION TIME  SKY/WX   TEMP    WIND        PRES    WAVE
                                AIR SEA DIR/SP/G            HT/PER
                 (UTC)          (F)     (DEG/KT/KT) (MB)    (FT/S)
PULASKI SHOAL LI 2300            86      10/  3/  3 1015.2R
SAND KEY         2300            85     330/  4/  6 1015.2R
SOMBRERO KEY     2300            87     230/  2/  3 1015.8R
LONG KEY         2156            89 92  180/  3/  4 1015.7R
MOLASSES REEF    2300            86 87  190/  2/  2 1015.1S
FOWEY ROCKS      2300            82 87  320/ 11/ 12 1015.8R
Buoy 42080       NOT AVBL

$$



USA.gov is the U.S. government's official web portal to all federal, state and local government web resources and services.